Location: Knowlton
(51.2333°N, 1.2667°E)
Time: 07:05:54
(UTC+00:00)

ISS - Pass Details

Date: 01 October 2021
Orbit: 417 x 423 km, 51.6° (Epoch: 24 October)

Event Time Altitude Azimuth Distance (km) Brightness Sun altitude
Rises 19:50:40 0° 283° (WNW) 2,367 1.5 -22.0°
Reaches altitude 10° 19:53:04 10° 267° (W) 1,501 -0.1 -22.4°
Enters shadow 19:55:26 21° 223° (SW) 1,007 -1.7 -22.7°
